Time,TemperatureF,DewpointF,PressureIn,WindDirection,WindDirectionDegrees,WindSpeedMPH,WindSpeedGustMPH,Humidity,HourlyPrecipIn,Conditions,Clouds,dailyrainin,SoftwareType,DateUTC
2013-04-30 00:02:00,47.8,38.5,29.50,WSW,248,6.8,8.1,70,0.00,RA,,0.00,WeatherDisplay:10.37,2013-04-30 06:02:00,
2013-04-30 00:07:00,47.8,38.8,29.51,West,270,6.2,9.2,71,0.00,RA,,0.00,WeatherDisplay:10.37,2013-04-30 06:07:00,
2013-04-30 00:12:00,47.5,39.3,29.51,West,270,6.1,9.2,73,0.00,OVC,,0.00,WeatherDisplay:10.37,2013-04-30 06:12:00,
2013-04-30 00:17:00,47.5,38.9,29.51,WSW,248,9.2,10.4,72,0.00,OVC,,0.00,WeatherDisplay:10.37,2013-04-30 06:17:00,
2013-04-30 00:22:00,47.5,38.6,29.51,West,270,6.9,8.3,71,0.00,OVC,,0.00,WeatherDisplay:10.37,2013-04-30 06:22:00,
2013-04-30 00:27:00,47.5,37.5,29.51,West,270,8.7,10.4,68,0.00,OVC,,0.00,WeatherDisplay:10.37,2013-04-30 06:27:00,
2013-04-30 00:32:00,47.5,36.7,29.51,SW,225,8.3,9.4,66,0.00,OVC,,0.00,WeatherDisplay:10.37,2013-04-30 06:32:00,
2013-04-30 00:37:00,47.1,37.1,29.51,WSW,248,7.6,10.4,68,0.00,OVC,,0.00,WeatherDisplay:10.37,2013-04-30 06:37:00,
2013-04-30 00:42:00,46.8,36.8,29.51,West,270,6.2,6.9,68,0.00,OVC,,0.00,WeatherDisplay:10.37,2013-04-30 06:42:00,
2013-04-30 00:47:00,46.8,36.4,29.51,WSW,248,6.7,7.3,67,0.00,OVC,,0.00,WeatherDisplay:10.37,2013-04-30 06:47:00,
2013-04-30 00:52:00,46.4,36.0,29.51,WSW,248,5.6,6.3,67,0.00,OVC,,0.00,WeatherDisplay:10.37,2013-04-30 06:52:00,
2013-04-30 00:57:00,46.2,36.2,29.51,West,270,5.4,5.8,68,0.00,OVC,,0.00,WeatherDisplay:10.37,2013-04-30 06:57:00,
2013-04-30 01:02:00,46.0,36.0,29.51,WSW,248,7.4,8.1,68,0.00,BKN,,0.00,WeatherDisplay:10.37,2013-04-30 07:02:00,
2013-04-30 01:07:00,46.0,35.7,29.52,West,270,6.7,8.1,67,0.00,BKN,,0.00,WeatherDisplay:10.37,2013-04-30 07:07:00,
2013-04-30 01:12:00,45.7,35.0,29.52,WSW,248,8.9,10.4,66,0.00,BKN,,0.00,WeatherDisplay:10.37,2013-04-30 07:12:00,
2013-04-30 01:17:00,45.5,35.2,29.53,SSW,202,5.9,6.9,67,0.00,BKN,,0.00,WeatherDisplay:10.37,2013-04-30 07:17:00,
2013-04-30 01:22:00,45.3,35.0,29.53,WSW,248,7.3,9.2,67,0.00,BKN,,0.00,WeatherDisplay:10.37,2013-04-30 07:22:00,
2013-04-30 01:27:00,45.0,34.7,29.53,WSW,248,7.0,8.8,67,0.00,BKN,,0.00,WeatherDisplay:10.37,2013-04-30 07:27:00,
2013-04-30 01:32:00,44.8,35.2,29.53,SW,225,8.5,10.4,69,0.00,BKN,,0.00,WeatherDisplay:10.37,2013-04-30 07:32:00,
2013-04-30 01:37:00,44.8,35.2,29.53,SW,225,8.8,9.2,69,0.00,BKN,,0.00,WeatherDisplay:10.37,2013-04-30 07:37:00,
2013-04-30 01:42:00,44.8,34.9,29.53,SW,225,8.8,9.2,68,0.00,BKN,,0.00,WeatherDisplay:10.37,2013-04-30 07:42:00,
2013-04-30 01:47:00,44.8,34.9,29.53,SW,225,8.8,9.2,68,0.00,BKN,,0.00,WeatherDisplay:10.37,2013-04-30 07:47:00,
2013-04-30 01:52:00,45.0,34.3,29.53,WSW,248,7.7,10.4,66,0.00,BKN,,0.00,WeatherDisplay:10.37,2013-04-30 07:52:00,
2013-04-30 01:57:00,44.8,33.7,29.53,West,270,7.7,10.4,65,0.00,BKN,,0.00,WeatherDisplay:10.37,2013-04-30 07:57:00,
2013-04-30 02:02:00,44.8,33.4,29.53,SW,225,9.1,12.4,64,0.00,CLR,,0.00,WeatherDisplay:10.37,2013-04-30 08:02:00,
2013-04-30 02:07:00,44.4,33.0,29.53,WSW,248,8.1,10.4,64,0.00,CLR,,0.00,WeatherDisplay:10.37,2013-04-30 08:07:00,
2013-04-30 02:12:00,44.2,32.8,29.53,South,180,9.1,11.5,64,0.00,CLR,,0.00,WeatherDisplay:10.37,2013-04-30 08:12:00,
2013-04-30 02:17:00,44.1,32.7,29.54,WSW,248,8.3,9.2,64,0.00,CLR,,0.00,WeatherDisplay:10.37,2013-04-30 08:17:00,
2013-04-30 02:22:00,43.9,32.5,29.54,SW,225,9.7,11.5,64,0.00,CLR,,0.00,WeatherDisplay:10.37,2013-04-30 08:22:00,
2013-04-30 02:27:00,43.9,32.1,29.54,WSW,248,8.9,10.4,63,0.00,CLR,,0.00,WeatherDisplay:10.37,2013-04-30 08:27:00,
2013-04-30 02:32:00,43.9,32.1,29.54,WSW,248,12.4,16.1,63,0.00,CLR,,0.00,WeatherDisplay:10.37,2013-04-30 08:32:00,
2013-04-30 02:37:00,43.9,32.1,29.54,SW,225,10.8,11.5,63,0.00,CLR,,0.00,WeatherDisplay:10.37,2013-04-30 08:37:00,
2013-04-30 02:42:00,43.3,31.5,29.54,SW,225,12.6,17.1,63,0.00,CLR,,0.00,WeatherDisplay:10.37,2013-04-30 08:42:00,
2013-04-30 02:47:00,43.0,32.0,29.54,SW,225,6.8,9.2,65,0.00,CLR,,0.00,WeatherDisplay:10.37,2013-04-30 08:47:00,
2013-04-30 02:52:00,42.3,32.1,29.53,SW,225,10.4,11.5,67,0.00,CLR,,0.00,WeatherDisplay:10.37,2013-04-30 08:52:00,
2013-04-30 02:57:00,41.9,31.7,29.53,SW,225,10.9,11.5,67,0.00,CLR,,0.00,WeatherDisplay:10.37,2013-04-30 08:57:00,
2013-04-30 03:02:00,41.9,31.4,29.53,WSW,248,10.3,17.3,66,0.00,CLR,,0.00,WeatherDisplay:10.37,2013-04-30 09:02:00,
2013-04-30 03:07:00,41.5,31.0,29.53,WSW,248,7.9,10.4,66,0.00,CLR,,0.00,WeatherDisplay:10.37,2013-04-30 09:07:00,
2013-04-30 03:12:00,41.2,30.3,29.53,WSW,248,8.7,10.4,65,0.00,CLR,,0.00,WeatherDisplay:10.37,2013-04-30 09:12:00,
2013-04-30 03:17:00,41.0,29.4,29.54,West,270,10.5,13.8,63,0.00,CLR,,0.00,WeatherDisplay:10.37,2013-04-30 09:17:00,
2013-04-30 03:22:00,41.0,29.4,29.54,SW,225,12.4,12.7,63,0.00,CLR,,0.00,WeatherDisplay:10.37,2013-04-30 09:22:00,
2013-04-30 03:27:00,41.0,29.0,29.54,WSW,248,12.1,14.0,62,0.00,CLR,,0.00,WeatherDisplay:10.37,2013-04-30 09:27:00,
2013-04-30 03:32:00,41.0,28.2,29.55,WSW,248,12.1,13.8,60,0.00,CLR,,0.00,WeatherDisplay:10.37,2013-04-30 09:32:00,
2013-04-30 03:37:00,40.6,28.6,29.55,SW,225,11.5,18.4,62,0.00,CLR,,0.00,WeatherDisplay:10.37,2013-04-30 09:37:00,
2013-04-30 03:42:00,40.6,28.2,29.55,WSW,248,13.5,14.5,61,0.00,CLR,,0.00,WeatherDisplay:10.37,2013-04-30 09:42:00,
2013-04-30 03:47:00,40.3,28.3,29.55,SW,225,12.8,18.4,62,0.00,CLR,,0.00,WeatherDisplay:10.37,2013-04-30 09:47:00,
2013-04-30 03:52:00,40.1,28.1,29.56,SW,225,15.3,19.1,62,0.00,CLR,,0.00,WeatherDisplay:10.37,2013-04-30 09:52:00,
2013-04-30 03:57:00,40.3,27.9,29.56,WSW,248,17.0,18.4,61,0.00,CLR,,0.00,WeatherDisplay:10.37,2013-04-30 09:57:00,
2013-04-30 04:02:00,39.6,28.0,29.56,SW,225,13.6,16.1,63,0.00,CLR,,0.00,WeatherDisplay:10.37,2013-04-30 10:02:00,
2013-04-30 04:07:00,39.7,28.1,29.56,SW,225,14.2,17.3,63,0.00,CLR,,0.00,WeatherDisplay:10.37,2013-04-30 10:07:00,
2013-04-30 04:12:00,39.6,28.0,29.56,WSW,248,17.9,20.7,63,0.00,CLR,,0.00,WeatherDisplay:10.37,2013-04-30 10:12:00,
2013-04-30 04:17:00,39.6,28.4,29.56,SW,225,16.9,18.6,64,0.00,CLR,,0.00,WeatherDisplay:10.37,2013-04-30 10:17:00,
2013-04-30 04:22:00,39.4,28.6,29.56,SW,225,14.7,15.5,65,0.00,CLR,,0.00,WeatherDisplay:10.37,2013-04-30 10:22:00,
2013-04-30 04:27:00,39.4,28.6,29.56,WSW,248,12.9,14.5,65,0.00,CLR,,0.00,WeatherDisplay:10.37,2013-04-30 10:27:00,
2013-04-30 04:32:00,39.6,28.4,29.56,SW,225,18.1,21.9,64,0.00,CLR,,0.00,WeatherDisplay:10.37,2013-04-30 10:32:00,
2013-04-30 04:37:00,39.6,28.8,29.56,SW,225,19.4,24.2,65,0.00,CLR,,0.00,WeatherDisplay:10.37,2013-04-30 10:37:00,
2013-04-30 04:42:00,39.6,29.2,29.56,SW,225,17.3,19.6,66,0.00,CLR,,0.00,WeatherDisplay:10.37,2013-04-30 10:42:00,
2013-04-30 04:47:00,39.4,29.0,29.56,WSW,248,19.8,24.3,66,0.00,CLR,,0.00,WeatherDisplay:10.37,2013-04-30 10:47:00,
2013-04-30 04:53:00,39.2,29.5,29.56,WSW,248,17.3,19.6,68,0.00,CLR,,0.00,WeatherDisplay:10.37,2013-04-30 10:53:00,
2013-04-30 04:58:00,39.4,30.1,29.56,SSE,158,17.0,23.8,69,0.00,CLR,,0.00,WeatherDisplay:10.37,2013-04-30 10:58:00,
2013-04-30 05:03:00,39.6,30.3,29.56,SW,225,20.6,24.2,69,0.00,SCT,,0.00,WeatherDisplay:10.37,2013-04-30 11:03:00,
2013-04-30 05:08:00,39.6,30.6,29.56,SW,225,16.4,18.4,70,0.00,SCT,,0.00,WeatherDisplay:10.37,2013-04-30 11:08:00,
2013-04-30 05:13:00,39.6,31.3,29.56,West,270,21.0,25.3,72,0.00,SCT,,0.00,WeatherDisplay:10.37,2013-04-30 11:13:00,
2013-04-30 05:18:00,39.6,31.7,29.56,West,270,13.1,19.6,73,0.00,SCT,,0.00,WeatherDisplay:10.37,2013-04-30 11:18:00,
2013-04-30 05:23:00,39.0,32.1,29.56,SW,225,11.8,19.6,76,0.00,SCT,,0.00,WeatherDisplay:10.37,2013-04-30 11:23:00,
2013-04-30 05:28:00,38.8,31.9,29.56,SW,225,14.6,20.7,76,0.00,SCT,,0.00,WeatherDisplay:10.37,2013-04-30 11:28:00,
2013-04-30 05:33:00,38.8,31.9,29.57,WSW,248,14.3,18.4,76,0.00,OVC,,0.00,WeatherDisplay:10.37,2013-04-30 11:33:00,
2013-04-30 05:38:00,38.7,32.4,29.57,WSW,248,13.8,18.4,78,0.00,OVC,,0.00,WeatherDisplay:10.37,2013-04-30 11:38:00,
2013-04-30 05:43:00,38.5,32.9,29.58,SW,225,16.7,17.3,80,0.00,OVC,,0.00,WeatherDisplay:10.37,2013-04-30 11:43:00,
2013-04-30 05:48:00,38.3,32.7,29.58,SW,225,16.4,20.7,80,0.00,OVC,,0.00,WeatherDisplay:10.37,2013-04-30 11:48:00,
2013-04-30 05:53:00,38.3,33.0,29.58,SW,225,15.2,23.0,81,0.00,OVC,,0.00,WeatherDisplay:10.37,2013-04-30 11:53:00,
2013-04-30 05:58:00,38.3,33.0,29.58,WSW,248,13.5,13.8,81,0.00,OVC,,0.00,WeatherDisplay:10.37,2013-04-30 11:58:00,
2013-04-30 06:03:00,38.3,33.0,29.58,West,270,16.2,23.0,81,0.00,OVC,,0.00,WeatherDisplay:10.37,2013-04-30 12:03:00,
2013-04-30 06:08:00,38.3,33.3,29.59,NW,315,12.8,13.8,82,0.00,OVC,,0.00,WeatherDisplay:10.37,2013-04-30 12:08:00,
2013-04-30 06:13:00,38.3,33.3,29.59,SW,225,11.3,15.0,82,0.00,OVC,,0.00,WeatherDisplay:10.37,2013-04-30 12:13:00,
2013-04-30 06:18:00,38.3,33.3,29.59,SW,225,15.5,20.7,82,0.00,OVC,,0.00,WeatherDisplay:10.37,2013-04-30 12:18:00,
2013-04-30 06:23:00,38.3,33.3,29.59,SSW,202,15.5,17.3,82,0.00,OVC,,0.00,WeatherDisplay:10.37,2013-04-30 12:23:00,
2013-04-30 06:28:00,38.3,33.3,29.59,WSW,248,18.0,20.7,82,0.00,OVC,,0.00,WeatherDisplay:10.37,2013-04-30 12:28:00,
2013-04-30 06:33:00,38.1,33.7,29.59,SW,225,16.4,21.2,84,0.00,OVC,,0.00,WeatherDisplay:10.37,2013-04-30 12:33:00,
2013-04-30 06:38:00,37.8,34.3,29.59,West,270,11.7,17.3,87,0.00,OVC,,0.00,WeatherDisplay:10.37,2013-04-30 12:38:00,
2013-04-30 06:43:00,37.8,33.7,29.60,South,180,12.5,17.3,85,0.00,OVC,,0.00,WeatherDisplay:10.37,2013-04-30 12:43:00,
2013-04-30 06:48:00,37.8,33.4,29.60,WSW,248,14.5,16.1,84,0.00,OVC,,0.00,WeatherDisplay:10.37,2013-04-30 12:48:00,
2013-04-30 06:53:00,37.4,33.0,29.61,WSW,248,12.7,16.1,84,0.00,OVC,,0.00,WeatherDisplay:10.37,2013-04-30 12:53:00,
2013-04-30 06:58:00,37.0,32.6,29.61,WNW,292,15.1,18.4,84,0.00,OVC,,0.00,WeatherDisplay:10.37,2013-04-30 12:58:00,
2013-04-30 07:03:00,37.0,32.3,29.61,SW,225,17.4,23.2,83,0.00,OVC,,0.00,WeatherDisplay:10.37,2013-04-30 13:03:00,
2013-04-30 07:08:00,36.7,32.0,29.62,WSW,248,12.4,14.0,83,0.00,OVC,,0.00,WeatherDisplay:10.37,2013-04-30 13:08:00,
2013-04-30 07:13:00,36.3,31.6,29.62,WSW,248,15.4,18.6,83,0.00,OVC,,0.00,WeatherDisplay:10.37,2013-04-30 13:13:00,
2013-04-30 07:18:00,36.3,31.3,29.63,West,270,14.0,14.0,82,0.00,OVC,,0.00,WeatherDisplay:10.37,2013-04-30 13:18:00,
2013-04-30 07:23:00,36.7,31.1,29.63,WSW,248,12.5,18.4,80,0.00,OVC,,0.00,WeatherDisplay:10.37,2013-04-30 13:23:00,
2013-04-30 07:28:00,36.7,29.8,29.64,SW,225,18.6,20.7,76,0.00,OVC,,0.00,WeatherDisplay:10.37,2013-04-30 13:28:00,
2013-04-30 07:33:00,36.7,29.8,29.64,SW,225,19.1,19.6,76,0.00,OVC,,0.00,WeatherDisplay:10.37,2013-04-30 13:33:00,
2013-04-30 07:38:00,36.7,30.2,29.64,WSW,248,10.6,17.3,77,0.00,OVC,,0.00,WeatherDisplay:10.37,2013-04-30 13:38:00,
2013-04-30 07:43:00,36.5,29.0,29.65,SW,225,15.6,16.1,74,0.00,OVC,,0.00,WeatherDisplay:10.37,2013-04-30 13:43:00,
2013-04-30 07:48:00,36.7,28.5,29.65,West,270,13.5,13.8,72,0.00,OVC,,0.00,WeatherDisplay:10.37,2013-04-30 13:48:00,
2013-04-30 07:53:00,36.9,28.0,29.65,WSW,248,15.2,15.2,70,0.00,OVC,,0.00,WeatherDisplay:10.37,2013-04-30 13:53:00,
2013-04-30 07:58:00,36.9,27.7,29.65,WSW,248,15.6,24.3,69,0.00,OVC,,0.00,WeatherDisplay:10.37,2013-04-30 13:58:00,
2013-04-30 08:03:00,36.9,27.3,29.65,WNW,292,14.2,21.9,68,0.00,OVC,,0.00,WeatherDisplay:10.37,2013-04-30 14:03:00,
2013-04-30 08:08:00,37.0,27.8,29.65,West,270,15.5,18.4,69,0.00,OVC,,0.00,WeatherDisplay:10.37,2013-04-30 14:08:00,
2013-04-30 08:13:00,37.0,27.8,29.65,WSW,248,12.3,20.7,69,0.00,OVC,,0.00,WeatherDisplay:10.37,2013-04-30 14:13:00,
2013-04-30 08:18:00,36.9,27.7,29.65,West,270,19.9,20.7,69,0.00,OVC,,0.00,WeatherDisplay:10.37,2013-04-30 14:18:00,
2013-04-30 08:23:00,37.2,28.0,29.65,WSW,248,14.5,20.7,69,0.00,OVC,,0.00,WeatherDisplay:10.37,2013-04-30 14:23:00,
2013-04-30 08:28:00,37.4,27.8,29.65,West,270,16.5,18.4,68,0.00,OVC,,0.00,WeatherDisplay:10.37,2013-04-30 14:28:00,
2013-04-30 08:33:00,37.8,28.2,29.65,WSW,248,20.2,20.7,68,0.00,OVC,,0.00,WeatherDisplay:10.37,2013-04-30 14:33:00,
2013-04-30 08:38:00,37.8,28.2,29.65,WSW,248,20.2,20.7,68,0.00,OVC,,0.00,WeatherDisplay:10.37,2013-04-30 14:38:00,
2013-04-30 08:43:00,37.8,28.5,29.66,WNW,292,16.5,23.0,69,0.00,OVC,,0.00,WeatherDisplay:10.37,2013-04-30 14:43:00,
2013-04-30 08:48:00,37.8,28.5,29.66,WNW,292,16.0,16.1,69,0.00,OVC,,0.00,WeatherDisplay:10.37,2013-04-30 14:48:00,
2013-04-30 08:53:00,37.9,27.9,29.66,WSW,248,19.0,21.9,67,0.00,OVC,,0.00,WeatherDisplay:10.37,2013-04-30 14:53:00,
2013-04-30 08:58:00,37.6,28.0,29.66,WSW,248,17.1,20.7,68,0.00,OVC,,0.00,WeatherDisplay:10.37,2013-04-30 14:58:00,
2013-04-30 09:03:00,38.1,28.5,29.67,West,270,15.8,20.7,68,0.00,OVC,,0.00,WeatherDisplay:10.37,2013-04-30 15:03:00,
2013-04-30 09:08:00,38.1,28.5,29.67,West,270,15.0,15.0,68,0.00,OVC,,0.00,WeatherDisplay:10.37,2013-04-30 15:08:00,
2013-04-30 09:13:00,38.5,27.7,29.67,West,270,17.9,23.0,65,0.00,OVC,,0.00,WeatherDisplay:10.37,2013-04-30 15:13:00,
2013-04-30 09:18:00,37.9,27.5,29.67,WSW,248,21.7,23.0,66,0.00,OVC,,0.00,WeatherDisplay:10.37,2013-04-30 15:18:00,
2013-04-30 09:23:00,38.7,27.9,29.67,WSW,248,19.2,25.3,65,0.00,OVC,,0.00,WeatherDisplay:10.37,2013-04-30 15:23:00,
2013-04-30 09:28:00,38.8,27.7,29.68,West,270,22.7,23.0,64,0.00,OVC,,0.00,WeatherDisplay:10.37,2013-04-30 15:28:00,
2013-04-30 09:33:00,38.8,28.0,29.68,NE,45,11.3,18.4,65,0.00,OVC,,0.00,WeatherDisplay:10.37,2013-04-30 15:33:00,
2013-04-30 09:38:00,38.8,27.7,29.68,SW,225,21.8,23.0,64,0.00,OVC,,0.00,WeatherDisplay:10.37,2013-04-30 15:38:00,
2013-04-30 09:43:00,38.7,27.6,29.67,WNW,292,22.1,23.0,64,0.00,OVC,,0.00,WeatherDisplay:10.37,2013-04-30 15:43:00,
2013-04-30 09:48:00,38.7,27.6,29.67,West,270,19.4,20.7,64,0.00,OVC,,0.00,WeatherDisplay:10.37,2013-04-30 15:48:00,
2013-04-30 09:53:00,38.8,27.7,29.69,West,270,19.9,24.3,64,0.00,OVC,,0.00,WeatherDisplay:10.37,2013-04-30 15:53:00,
2013-04-30 09:59:00,39.2,27.7,29.69,West,270,16.6,21.9,63,0.00,OVC,,0.00,WeatherDisplay:10.37,2013-04-30 15:59:00,
2013-04-30 10:04:00,38.7,27.2,29.69,West,270,22.0,23.0,63,0.00,OVC,,0.00,WeatherDisplay:10.37,2013-04-30 16:04:00,
2013-04-30 10:09:00,39.2,28.4,29.69,West,270,14.0,22.2,65,0.00,OVC,,0.00,WeatherDisplay:10.37,2013-04-30 16:09:00,
2013-04-30 10:14:00,38.7,27.9,29.69,WSW,248,16.2,18.1,65,0.00,OVC,,0.00,WeatherDisplay:10.37,2013-04-30 16:14:00,
2013-04-30 10:19:00,37.9,27.5,29.70,SW,225,18.5,20.7,66,0.00,OVC,,0.00,WeatherDisplay:10.37,2013-04-30 16:19:00,
2013-04-30 10:24:00,37.8,27.5,29.70,West,270,20.5,23.0,66,0.00,OVC,,0.00,WeatherDisplay:10.37,2013-04-30 16:24:00,
2013-04-30 10:29:00,38.8,27.7,29.71,WSW,248,22.4,23.0,64,0.00,OVC,,0.00,WeatherDisplay:10.37,2013-04-30 16:29:00,
2013-04-30 10:34:00,39.0,27.5,29.71,WNW,292,18.8,21.7,63,0.00,OVC,,0.00,WeatherDisplay:10.37,2013-04-30 16:34:00,
2013-04-30 10:39:00,39.0,28.2,29.72,West,270,23.9,23.9,65,0.00,OVC,,0.00,WeatherDisplay:10.37,2013-04-30 16:39:00,
2013-04-30 10:44:00,38.7,27.6,29.72,NW,315,24.6,24.6,64,0.00,OVC,,0.00,WeatherDisplay:10.37,2013-04-30 16:44:00,
2013-04-30 10:49:00,38.3,27.6,29.72,WSW,248,18.5,26.5,65,0.00,OVC,,0.00,WeatherDisplay:10.37,2013-04-30 16:49:00,
2013-04-30 10:54:00,37.9,27.5,29.72,West,270,21.3,23.0,66,0.00,OVC,,0.00,WeatherDisplay:10.37,2013-04-30 16:54:00,
2013-04-30 10:59:00,37.8,27.5,29.72,West,270,17.6,21.9,66,0.00,OVC,,0.00,WeatherDisplay:10.37,2013-04-30 16:59:00,
2013-04-30 11:04:00,37.4,27.4,29.72,WSW,248,16.4,20.7,67,0.00,OVC,,0.00,WeatherDisplay:10.37,2013-04-30 17:04:00,
2013-04-30 11:09:00,38.1,27.7,29.73,WNW,292,16.3,20.7,66,0.00,OVC,,0.00,WeatherDisplay:10.37,2013-04-30 17:09:00,
2013-04-30 11:14:00,38.5,27.7,29.73,West,270,14.7,16.1,65,0.00,OVC,,0.00,WeatherDisplay:10.37,2013-04-30 17:14:00,
2013-04-30 11:19:00,38.1,26.6,29.74,West,270,21.0,24.2,63,0.00,OVC,,0.00,WeatherDisplay:10.37,2013-04-30 17:19:00,
2013-04-30 11:24:00,38.5,27.0,29.74,WSW,248,17.6,20.7,63,0.00,OVC,,0.00,WeatherDisplay:10.37,2013-04-30 17:24:00,
2013-04-30 11:29:00,39.2,26.5,29.74,West,270,14.9,24.2,60,0.00,OVC,,0.00,WeatherDisplay:10.37,2013-04-30 17:29:00,
2013-04-30 11:34:00,39.9,27.1,29.74,West,270,18.0,24.3,60,0.00,OVC,,0.00,WeatherDisplay:10.37,2013-04-30 17:34:00,
2013-04-30 11:39:00,39.7,26.9,29.74,WSW,248,17.9,20.7,60,0.00,OVC,,0.00,WeatherDisplay:10.37,2013-04-30 17:39:00,
2013-04-30 11:44:00,40.1,26.5,29.75,SW,225,22.6,29.9,58,0.00,OVC,,0.00,WeatherDisplay:10.37,2013-04-30 17:44:00,
2013-04-30 11:49:00,39.9,26.3,29.75,WNW,292,18.2,20.7,58,0.00,OVC,,0.00,WeatherDisplay:10.37,2013-04-30 17:49:00,
2013-04-30 11:54:00,40.3,26.7,29.75,SW,225,18.4,25.3,58,0.00,OVC,,0.00,WeatherDisplay:10.37,2013-04-30 17:54:00,
2013-04-30 11:59:00,41.0,27.3,29.75,WSW,248,14.5,21.2,58,0.00,OVC,,0.00,WeatherDisplay:10.37,2013-04-30 17:59:00,
2013-04-30 12:04:00,39.9,26.7,29.76,SE,135,19.2,25.3,59,0.00,OVC,,0.00,WeatherDisplay:10.37,2013-04-30 18:04:00,
2013-04-30 12:09:00,39.4,26.7,29.76,WSW,248,17.0,19.6,60,0.00,OVC,,0.00,WeatherDisplay:10.37,2013-04-30 18:09:00,
2013-04-30 12:14:00,39.6,26.4,29.76,WSW,248,17.7,21.9,59,0.00,OVC,,0.00,WeatherDisplay:10.37,2013-04-30 18:14:00,
2013-04-30 12:19:00,39.9,26.7,29.77,West,270,14.8,24.2,59,0.00,OVC,,0.00,WeatherDisplay:10.37,2013-04-30 18:19:00,
2013-04-30 12:24:00,40.1,26.5,29.77,West,270,18.9,24.2,58,0.00,OVC,,0.00,WeatherDisplay:10.37,2013-04-30 18:24:00,
2013-04-30 12:29:00,39.9,26.3,29.77,NW,315,17.4,24.2,58,0.00,OVC,,0.00,WeatherDisplay:10.37,2013-04-30 18:29:00,
2013-04-30 12:34:00,42.1,27.5,29.77,West,270,15.3,16.1,56,0.00,OVC,,0.00,WeatherDisplay:10.37,2013-04-30 18:34:00,
2013-04-30 12:39:00,40.5,26.4,29.77,West,270,18.1,23.0,57,0.00,OVC,,0.00,WeatherDisplay:10.37,2013-04-30 18:39:00,
2013-04-30 12:44:00,40.6,27.0,29.77,WSW,248,17.6,20.7,58,0.00,OVC,,0.00,WeatherDisplay:10.37,2013-04-30 18:44:00,
2013-04-30 12:49:00,41.5,27.0,29.77,WNW,292,16.9,20.2,56,0.00,OVC,,0.00,WeatherDisplay:10.37,2013-04-30 18:49:00,
2013-04-30 12:54:00,41.5,27.0,29.78,West,270,18.0,18.6,56,0.00,OVC,,0.00,WeatherDisplay:10.37,2013-04-30 18:54:00,
2013-04-30 12:59:00,42.3,27.7,29.78,South,180,15.5,20.7,56,0.00,OVC,,0.00,WeatherDisplay:10.37,2013-04-30 18:59:00,
2013-04-30 13:04:00,41.5,27.0,29.78,WNW,292,16.0,16.1,56,0.00,OVC,,0.00,WeatherDisplay:10.37,2013-04-30 19:04:00,
2013-04-30 13:09:00,41.2,26.2,29.78,WSW,248,16.9,22.2,55,0.00,OVC,,0.00,WeatherDisplay:10.37,2013-04-30 19:09:00,
2013-04-30 13:14:00,42.4,27.8,29.78,West,270,18.7,25.3,56,0.00,OVC,,0.00,WeatherDisplay:10.37,2013-04-30 19:14:00,
2013-04-30 13:19:00,43.3,27.8,29.79,SW,225,17.1,20.7,54,0.00,OVC,,0.00,WeatherDisplay:10.37,2013-04-30 19:19:00,
2013-04-30 13:24:00,41.5,26.1,29.79,WNW,292,19.3,19.6,54,0.00,OVC,,0.00,WeatherDisplay:10.37,2013-04-30 19:24:00,
2013-04-30 13:29:00,41.0,26.5,29.79,WSW,248,15.5,23.0,56,0.00,OVC,,0.00,WeatherDisplay:10.37,2013-04-30 19:29:00,
2013-04-30 13:34:00,40.8,26.3,29.79,West,270,13.6,19.6,56,0.00,OVC,,0.00,WeatherDisplay:10.37,2013-04-30 19:34:00,
2013-04-30 13:39:00,41.0,26.5,29.79,West,270,13.7,22.2,56,0.00,OVC,,0.00,WeatherDisplay:10.37,2013-04-30 19:39:00,
2013-04-30 13:44:00,41.4,26.9,29.80,West,270,18.2,21.9,56,0.00,OVC,,0.00,WeatherDisplay:10.37,2013-04-30 19:44:00,
2013-04-30 13:49:00,41.0,26.1,29.80,WNW,292,17.9,19.6,55,0.00,OVC,,0.00,WeatherDisplay:10.37,2013-04-30 19:49:00,
2013-04-30 13:54:00,41.7,26.3,29.80,South,180,17.9,20.2,54,0.00,OVC,,0.00,WeatherDisplay:10.37,2013-04-30 19:54:00,
2013-04-30 13:59:00,40.6,26.1,29.80,WNW,292,18.5,23.0,56,0.00,OVC,,0.00,WeatherDisplay:10.37,2013-04-30 19:59:00,
2013-04-30 14:04:00,40.5,26.4,29.80,WSW,248,16.1,19.6,57,0.00,OVC,,0.00,WeatherDisplay:10.37,2013-04-30 20:04:00,
2013-04-30 14:09:00,40.6,26.1,29.80,West,270,16.6,16.6,56,0.00,OVC,,0.00,WeatherDisplay:10.37,2013-04-30 20:09:00,
2013-04-30 14:14:00,40.6,26.1,29.80,WNW,292,17.4,24.2,56,0.00,OVC,,0.00,WeatherDisplay:10.37,2013-04-30 20:14:00,
2013-04-30 14:19:00,40.1,26.1,29.81,West,270,17.9,23.0,57,0.00,OVC,,0.00,WeatherDisplay:10.37,2013-04-30 20:19:00,
2013-04-30 14:24:00,40.6,26.5,29.81,West,270,15.9,16.1,57,0.00,OVC,,0.00,WeatherDisplay:10.37,2013-04-30 20:24:00,
2013-04-30 14:29:00,40.8,26.3,29.81,West,270,13.7,21.9,56,0.00,OVC,,0.00,WeatherDisplay:10.37,2013-04-30 20:29:00,
2013-04-30 14:34:00,41.5,26.5,29.81,SSW,202,19.4,25.3,55,0.00,OVC,,0.00,WeatherDisplay:10.37,2013-04-30 20:34:00,
2013-04-30 14:39:00,41.2,26.7,29.81,ENE,68,17.5,23.0,56,0.00,OVC,,0.00,WeatherDisplay:10.37,2013-04-30 20:39:00,
2013-04-30 14:44:00,41.4,26.9,29.82,NNW,338,16.1,19.6,56,0.00,OVC,,0.00,WeatherDisplay:10.37,2013-04-30 20:44:00,
2013-04-30 14:50:00,41.4,26.4,29.82,WNW,292,17.7,21.9,55,0.00,OVC,,0.00,WeatherDisplay:10.37,2013-04-30 20:50:00,
2013-04-30 14:55:00,41.5,26.1,29.83,SW,225,17.4,25.3,54,0.00,OVC,,0.00,WeatherDisplay:10.37,2013-04-30 20:55:00,
2013-04-30 15:00:00,41.0,26.1,29.83,NW,315,18.7,21.9,55,0.00,OVC,,0.00,WeatherDisplay:10.37,2013-04-30 21:00:00,
2013-04-30 15:05:00,41.2,26.2,29.83,WSW,248,15.0,19.6,55,0.00,OVC,,0.00,WeatherDisplay:10.37,2013-04-30 21:05:00,
2013-04-30 15:10:00,40.5,25.6,29.83,NW,315,17.5,23.0,55,0.00,OVC,,0.00,WeatherDisplay:10.37,2013-04-30 21:10:00,
2013-04-30 15:15:00,40.5,25.6,29.83,WSW,248,18.5,24.2,55,0.00,OVC,,0.00,WeatherDisplay:10.37,2013-04-30 21:15:00,
2013-04-30 15:20:00,40.3,25.4,29.84,West,270,22.1,22.1,55,0.00,OVC,,0.00,WeatherDisplay:10.37,2013-04-30 21:20:00,
2013-04-30 15:25:00,41.5,25.6,29.84,WSW,248,17.8,20.7,53,0.00,OVC,,0.00,WeatherDisplay:10.37,2013-04-30 21:25:00,
2013-04-30 15:30:00,40.3,25.4,29.84,West,270,18.9,21.9,55,0.00,OVC,,0.00,WeatherDisplay:10.37,2013-04-30 21:30:00,
2013-04-30 15:35:00,40.6,25.7,29.84,WNW,292,11.7,19.1,55,0.00,OVC,,0.00,WeatherDisplay:10.37,2013-04-30 21:35:00,
2013-04-30 15:40:00,40.5,25.6,29.84,WSW,248,14.7,18.4,55,0.00,OVC,,0.00,WeatherDisplay:10.37,2013-04-30 21:40:00,
2013-04-30 15:45:00,40.8,25.4,29.84,WSW,248,15.1,21.9,54,0.00,OVC,,0.00,WeatherDisplay:10.37,2013-04-30 21:45:00,
2013-04-30 15:50:00,40.3,25.0,29.84,WNW,292,20.1,25.3,54,0.00,OVC,,0.00,WeatherDisplay:10.37,2013-04-30 21:50:00,
2013-04-30 15:55:00,40.1,25.2,29.85,NNW,338,19.5,24.3,55,0.00,OVC,,0.00,WeatherDisplay:10.37,2013-04-30 21:55:00,
2013-04-30 16:00:00,39.9,25.0,29.85,WNW,292,14.1,20.7,55,0.00,OVC,,0.00,WeatherDisplay:10.37,2013-04-30 22:00:00,
2013-04-30 16:05:00,40.8,25.9,29.86,West,270,11.8,19.6,55,0.00,OVC,,0.00,WeatherDisplay:10.37,2013-04-30 22:05:00,
2013-04-30 16:10:00,40.1,24.8,29.86,WSW,248,15.8,19.6,54,0.00,OVC,,0.00,WeatherDisplay:10.37,2013-04-30 22:10:00,
2013-04-30 16:15:00,39.7,24.4,29.86,WNW,292,20.0,21.9,54,0.00,OVC,,0.00,WeatherDisplay:10.37,2013-04-30 22:15:00,
2013-04-30 16:20:00,39.6,24.7,29.88,West,270,17.1,20.7,55,0.00,OVC,,0.00,WeatherDisplay:10.37,2013-04-30 22:20:00,
2013-04-30 16:25:00,39.6,24.3,29.88,West,270,18.4,23.0,54,0.00,OVC,,0.00,WeatherDisplay:10.37,2013-04-30 22:25:00,
2013-04-30 16:30:00,39.4,24.6,29.89,WSW,248,11.9,17.3,55,0.00,OVC,,0.00,WeatherDisplay:10.37,2013-04-30 22:30:00,
2013-04-30 16:35:00,39.4,24.1,29.89,West,270,16.1,17.3,54,0.00,OVC,,0.00,WeatherDisplay:10.37,2013-04-30 22:35:00,
2013-04-30 16:40:00,39.0,23.7,29.90,NW,315,13.9,16.1,54,0.00,OVC,,0.00,WeatherDisplay:10.37,2013-04-30 22:40:00,
2013-04-30 16:45:00,39.0,24.2,29.90,WNW,292,18.9,21.9,55,0.00,OVC,,0.00,WeatherDisplay:10.37,2013-04-30 22:45:00,
2013-04-30 16:50:00,38.8,24.4,29.90,WSW,248,13.1,16.1,56,0.00,OVC,,0.00,WeatherDisplay:10.37,2013-04-30 22:50:00,
2013-04-30 16:55:00,38.3,24.0,29.91,NW,315,13.5,18.4,56,0.00,OVC,,0.00,WeatherDisplay:10.37,2013-04-30 22:55:00,
2013-04-30 17:00:00,38.5,24.1,29.91,SSW,202,13.0,17.3,56,0.00,OVC,,0.00,WeatherDisplay:10.37,2013-04-30 23:00:00,
2013-04-30 17:05:00,37.9,24.0,29.92,West,270,13.7,18.4,57,0.00,OVC,,0.00,WeatherDisplay:10.37,2013-04-30 23:05:00,
2013-04-30 17:10:00,38.1,23.8,29.92,WSW,248,16.1,18.4,56,0.00,OVC,,0.00,WeatherDisplay:10.37,2013-04-30 23:10:00,
2013-04-30 17:15:00,37.9,24.0,29.92,West,270,12.2,16.1,57,0.00,OVC,,0.00,WeatherDisplay:10.37,2013-04-30 23:15:00,
2013-04-30 17:20:00,37.8,23.9,29.93,WNW,292,11.5,14.5,57,0.00,OVC,,0.00,WeatherDisplay:10.37,2013-04-30 23:20:00,
2013-04-30 17:25:00,37.8,24.3,29.93,West,270,12.1,17.6,58,0.00,OVC,,0.00,WeatherDisplay:10.37,2013-04-30 23:25:00,
2013-04-30 17:30:00,37.4,24.0,29.93,West,270,10.7,13.0,58,0.00,OVC,,0.00,WeatherDisplay:10.37,2013-04-30 23:30:00,
2013-04-30 17:35:00,37.4,24.0,29.93,West,270,17.0,19.6,58,0.00,OVC,,0.00,WeatherDisplay:10.37,2013-04-30 23:35:00,
2013-04-30 17:40:00,37.0,23.6,29.94,WSW,248,15.9,21.9,58,0.00,OVC,,0.00,WeatherDisplay:10.37,2013-04-30 23:40:00,
2013-04-30 17:45:00,37.0,23.2,29.94,West,270,14.2,16.1,57,0.00,OVC,,0.00,WeatherDisplay:10.37,2013-04-30 23:45:00,
2013-04-30 17:50:00,36.9,23.1,29.94,WNW,292,14.9,16.1,57,0.00,OVC,,0.00,WeatherDisplay:10.37,2013-04-30 23:50:00,
2013-04-30 17:55:00,37.0,22.7,29.95,West,270,14.9,20.7,56,0.00,OVC,,0.00,WeatherDisplay:10.37,2013-04-30 23:55:00,
2013-04-30 18:00:00,37.0,22.7,29.95,WSW,248,12.6,19.6,56,0.00,OVC,,0.00,WeatherDisplay:10.37,2013-05-01 00:00:00,
2013-04-30 18:05:00,36.9,22.7,29.96,NNW,338,12.1,13.8,56,0.00,OVC,,0.00,WeatherDisplay:10.37,2013-05-01 00:05:00,
2013-04-30 18:10:00,36.9,22.7,29.96,West,270,10.0,12.4,56,0.00,OVC,,0.00,WeatherDisplay:10.37,2013-05-01 00:10:00,
2013-04-30 18:15:00,36.7,22.5,29.96,West,270,15.8,18.4,56,0.00,OVC,,0.00,WeatherDisplay:10.37,2013-05-01 00:15:00,
2013-04-30 18:20:00,36.7,22.9,29.97,West,270,14.4,16.1,57,0.00,OVC,,0.00,WeatherDisplay:10.37,2013-05-01 00:20:00,
2013-04-30 18:25:00,36.7,22.9,29.97,WSW,248,7.5,10.4,57,0.00,OVC,,0.00,WeatherDisplay:10.37,2013-05-01 00:25:00,
2013-04-30 18:30:00,36.3,22.9,29.98,SSW,202,13.4,18.4,58,0.00,OVC,,0.00,WeatherDisplay:10.37,2013-05-01 00:30:00,
2013-04-30 18:35:00,35.8,22.5,29.98,WNW,292,12.8,15.0,58,0.00,OVC,,0.00,WeatherDisplay:10.37,2013-05-01 00:35:00,
2013-04-30 18:40:00,35.6,22.3,29.98,West,270,10.5,15.5,58,0.00,OVC,,0.00,WeatherDisplay:10.37,2013-05-01 00:40:00,
2013-04-30 18:45:00,35.6,22.3,29.98,WNW,292,12.7,17.3,58,0.00,OVC,,0.00,WeatherDisplay:10.37,2013-05-01 00:45:00,
2013-04-30 18:50:00,35.6,22.3,29.98,WNW,292,16.6,16.6,58,0.00,OVC,,0.00,WeatherDisplay:10.37,2013-05-01 00:50:00,
2013-04-30 18:55:00,35.4,22.1,30.00,West,270,10.1,12.7,58,0.00,OVC,,0.00,WeatherDisplay:10.37,2013-05-01 00:55:00,
2013-04-30 19:00:00,35.2,21.9,30.00,WNW,292,10.5,12.7,58,0.00,OVC,,0.00,WeatherDisplay:10.37,2013-05-01 01:00:00,
2013-04-30 19:05:00,35.2,22.3,30.00,West,270,8.0,11.5,59,0.00,OVC,,0.00,WeatherDisplay:10.37,2013-05-01 01:05:00,
2013-04-30 19:10:00,35.1,22.6,30.00,West,270,14.8,17.3,60,0.00,OVC,,0.00,WeatherDisplay:10.37,2013-05-01 01:10:00,
2013-04-30 19:15:00,34.9,22.4,30.00,West,270,10.2,13.8,60,0.00,OVC,,0.00,WeatherDisplay:10.37,2013-05-01 01:15:00,
2013-04-30 19:20:00,34.7,22.6,30.00,NW,315,9.4,10.4,61,0.00,OVC,,0.00,WeatherDisplay:10.37,2013-05-01 01:20:00,
2013-04-30 19:25:00,34.3,22.2,30.00,West,270,8.6,10.4,61,0.00,OVC,,0.00,WeatherDisplay:10.37,2013-05-01 01:25:00,
2013-04-30 19:30:00,34.0,22.3,30.02,West,270,6.8,10.4,62,0.00,OVC,,0.00,WeatherDisplay:10.37,2013-05-01 01:30:00,
2013-04-30 19:35:00,33.8,22.1,30.02,WNW,292,13.0,13.8,62,0.00,OVC,,0.00,WeatherDisplay:10.37,2013-05-01 01:35:00,
2013-04-30 19:40:00,33.8,22.1,30.03,NW,315,8.4,12.7,62,0.00,OVC,,0.00,WeatherDisplay:10.37,2013-05-01 01:40:00,
2013-04-30 19:45:00,33.6,22.0,30.03,West,270,11.5,18.4,62,0.00,OVC,,0.00,WeatherDisplay:10.37,2013-05-01 01:45:00,
2013-04-30 19:50:00,33.6,22.0,30.03,West,270,7.0,13.5,62,0.00,OVC,,0.00,WeatherDisplay:10.37,2013-05-01 01:50:00,
2013-04-30 19:55:00,33.6,22.0,30.04,West,270,7.5,12.7,62,0.00,OVC,,0.00,WeatherDisplay:10.37,2013-05-01 01:55:00,
2013-04-30 20:00:00,33.6,22.0,30.04,West,270,9.8,11.5,62,0.00,OVC,,0.00,WeatherDisplay:10.37,2013-05-01 02:00:00,
2013-04-30 20:05:00,33.4,22.1,30.06,NE,45,6.0,10.4,63,0.00,OVC,,0.00,WeatherDisplay:10.37,2013-05-01 02:05:00,
2013-04-30 20:10:00,33.4,21.4,30.06,ESE,112,6.3,11.5,61,0.00,OVC,,0.00,WeatherDisplay:10.37,2013-05-01 02:10:00,
2013-04-30 20:15:00,33.3,20.5,30.06,NW,315,11.9,16.1,59,0.00,OVC,,0.00,WeatherDisplay:10.37,2013-05-01 02:15:00,
2013-04-30 20:20:00,33.3,20.9,30.07,West,270,6.0,12.7,60,0.00,OVC,,0.00,WeatherDisplay:10.37,2013-05-01 02:20:00,
2013-04-30 20:25:00,33.1,21.1,30.07,WNW,292,7.6,9.2,61,0.00,OVC,,0.00,WeatherDisplay:10.37,2013-05-01 02:25:00,
2013-04-30 20:30:00,33.1,21.1,30.07,WNW,292,6.1,10.4,61,0.00,OVC,,0.00,WeatherDisplay:10.37,2013-05-01 02:30:00,
2013-04-30 20:36:00,33.3,20.9,30.07,WNW,292,5.7,9.9,60,0.00,OVC,,0.00,WeatherDisplay:10.37,2013-05-01 02:36:00,
2013-04-30 20:41:00,33.3,20.5,30.08,WSW,248,6.6,11.5,59,0.00,OVC,,0.00,WeatherDisplay:10.37,2013-05-01 02:41:00,
2013-04-30 20:46:00,33.4,20.6,30.08,NNE,22,4.2,5.8,59,0.00,OVC,,0.00,WeatherDisplay:10.37,2013-05-01 02:46:00,
2013-04-30 20:51:00,33.4,20.6,30.08,West,270,5.6,5.8,59,0.00,OVC,,0.00,WeatherDisplay:10.37,2013-05-01 02:51:00,
2013-04-30 20:56:00,33.4,20.6,30.09,WNW,292,6.8,6.9,59,0.00,OVC,,0.00,WeatherDisplay:10.37,2013-05-01 02:56:00,
2013-04-30 21:01:00,33.4,20.6,30.09,West,270,7.7,9.2,59,0.00,OVC,,0.00,WeatherDisplay:10.37,2013-05-01 03:01:00,
2013-04-30 21:06:00,33.4,20.2,30.10,West,270,7.1,8.8,58,0.00,OVC,,0.00,WeatherDisplay:10.37,2013-05-01 03:06:00,
2013-04-30 21:11:00,33.4,20.2,30.10,WNW,292,7.4,7.4,58,0.00,OVC,,0.00,WeatherDisplay:10.37,2013-05-01 03:11:00,
2013-04-30 21:16:00,33.4,20.2,30.10,NNW,338,4.7,6.9,58,0.00,OVC,,0.00,WeatherDisplay:10.37,2013-05-01 03:16:00,
2013-04-30 21:21:00,33.4,20.2,30.10,WNW,292,5.6,6.9,58,0.00,OVC,,0.00,WeatherDisplay:10.37,2013-05-01 03:21:00,
2013-04-30 21:26:00,33.4,20.2,30.10,WSW,248,5.7,6.9,58,0.00,OVC,,0.00,WeatherDisplay:10.37,2013-05-01 03:26:00,
2013-04-30 21:31:00,33.4,20.2,30.11,West,270,5.5,8.1,58,0.00,OVC,,0.00,WeatherDisplay:10.37,2013-05-01 03:31:00,
2013-04-30 21:36:00,33.4,20.6,30.11,West,270,7.0,8.1,59,0.00,OVC,,0.00,WeatherDisplay:10.37,2013-05-01 03:36:00,
2013-04-30 21:41:00,33.4,20.6,30.11,West,270,5.9,7.3,59,0.00,OVC,,0.00,WeatherDisplay:10.37,2013-05-01 03:41:00,
2013-04-30 21:46:00,33.8,21.0,30.11,West,270,5.2,5.8,59,0.00,OVC,,0.00,WeatherDisplay:10.37,2013-05-01 03:46:00,
2013-04-30 21:51:00,33.6,20.8,30.11,West,270,7.9,8.3,59,0.00,OVC,,0.00,WeatherDisplay:10.37,2013-05-01 03:51:00,
2013-04-30 21:56:00,33.6,21.2,30.12,West,270,4.6,6.9,60,0.00,OVC,,0.00,WeatherDisplay:10.37,2013-05-01 03:56:00,
2013-04-30 22:01:00,33.6,21.2,30.12,WSW,248,6.8,8.1,60,0.00,OVC,,0.00,WeatherDisplay:10.37,2013-05-01 04:01:00,
2013-04-30 22:06:00,33.6,21.6,30.13,WSW,248,5.6,5.8,61,0.00,OVC,,0.00,WeatherDisplay:10.37,2013-05-01 04:06:00,
2013-04-30 22:11:00,33.6,21.6,30.13,West,270,5.4,6.3,61,0.00,OVC,,0.00,WeatherDisplay:10.37,2013-05-01 04:11:00,
2013-04-30 22:16:00,33.6,21.6,30.13,West,270,4.7,5.8,61,0.00,OVC,,0.00,WeatherDisplay:10.37,2013-05-01 04:16:00,
2013-04-30 22:21:00,33.4,21.8,30.13,West,270,5.2,5.8,62,0.00,OVC,,0.00,WeatherDisplay:10.37,2013-05-01 04:21:00,
2013-04-30 22:26:00,33.3,21.7,30.13,West,270,6.1,6.3,62,0.00,OVC,,0.00,WeatherDisplay:10.37,2013-05-01 04:26:00,
2013-04-30 22:31:00,33.1,21.9,30.13,NW,315,4.5,5.8,63,0.00,OVC,,0.00,WeatherDisplay:10.37,2013-05-01 04:31:00,
2013-04-30 22:36:00,33.1,21.9,30.13,West,270,4.5,5.8,63,0.00,OVC,,0.00,WeatherDisplay:10.37,2013-05-01 04:36:00,
2013-04-30 22:41:00,32.9,21.7,30.14,WSW,248,4.3,4.6,63,0.00,OVC,,0.00,WeatherDisplay:10.37,2013-05-01 04:41:00,
2013-04-30 22:46:00,32.7,21.9,30.14,ESE,112,5.5,5.8,64,0.00,OVC,,0.00,WeatherDisplay:10.37,2013-05-01 04:46:00,
2013-04-30 22:51:00,32.4,21.6,30.14,West,270,4.6,5.8,64,0.00,OVC,,0.00,WeatherDisplay:10.37,2013-05-01 04:51:00,
2013-04-30 22:56:00,32.2,21.4,30.14,WSW,248,4.9,5.3,64,0.00,OVC,,0.00,WeatherDisplay:10.37,2013-05-01 04:56:00,
2013-04-30 23:01:00,32.0,21.6,30.14,West,270,3.7,5.8,65,0.00,OVC,,0.00,WeatherDisplay:10.37,2013-05-01 05:01:00,
2013-04-30 23:06:00,31.5,21.8,30.14,NW,315,3.7,4.6,67,0.00,OVC,,0.00,WeatherDisplay:10.37,2013-05-01 05:06:00,
2013-04-30 23:11:00,31.3,21.6,30.14,SW,225,4.0,4.7,67,0.00,OVC,,0.00,WeatherDisplay:10.37,2013-05-01 05:11:00,
2013-04-30 23:16:00,31.1,21.4,30.15,West,270,4.0,4.6,67,0.00,OVC,,0.00,WeatherDisplay:10.37,2013-05-01 05:16:00,
2013-04-30 23:21:00,30.7,21.4,30.15,WSW,248,4.9,5.8,68,0.00,OVC,,0.00,WeatherDisplay:10.37,2013-05-01 05:21:00,
2013-04-30 23:26:00,30.4,21.1,30.15,WSW,248,5.3,6.3,68,0.00,OVC,,0.00,WeatherDisplay:10.37,2013-05-01 05:26:00,
2013-04-30 23:31:00,29.8,20.5,30.15,WSW,248,6.0,6.0,68,0.00,OVC,,0.00,WeatherDisplay:10.37,2013-05-01 05:31:00,
2013-04-30 23:36:00,29.3,20.4,30.15,WSW,248,3.5,4.6,69,0.00,OVC,,0.00,WeatherDisplay:10.37,2013-05-01 05:36:00,
2013-04-30 23:41:00,29.1,20.5,30.15,WSW,248,3.6,4.6,70,0.00,OVC,,0.00,WeatherDisplay:10.37,2013-05-01 05:41:00,
2013-04-30 23:46:00,28.8,20.6,30.15,West,270,3.7,3.7,71,0.00,OVC,,0.00,WeatherDisplay:10.37,2013-05-01 05:46:00,
2013-04-30 23:51:00,28.4,20.5,30.15,West,270,4.0,4.6,72,0.00,OVC,,0.00,WeatherDisplay:10.37,2013-05-01 05:51:00,
2013-04-30 23:56:00,28.2,20.3,30.15,WSW,248,2.9,3.5,72,0.00,OVC,,0.00,WeatherDisplay:10.37,2013-05-01 05:56:00,